TimeMST,TemperatureF,Dew PointF,Humidity,Sea Level PressureIn,VisibilityMPH,Wind Direction,Wind SpeedMPH,Gust SpeedMPH,PrecipitationIn,Events,Conditions,WindDirDegrees,DateUTC
12:58 AM,46.2,46.2,100,30.10,10.0,North,2.3,-,N/A,,Clear,350,2013-03-10 07:58:00
1:58 AM,44.6,32.0,61,30.12,10.0,NNW,6.9,-,N/A,,Clear,330,2013-03-10 08:58:00
2:58 AM,44.6,32.0,61,30.11,10.0,NW,2.3,-,N/A,,Clear,310,2013-03-10 09:58:00
3:58 AM,42.8,32.0,66,30.11,10.0,NNE,4.6,-,N/A,,Clear,30,2013-03-10 10:58:00
4:58 AM,42.8,32.0,66,30.12,10.0,North,5.8,-,N/A,,Clear,360,2013-03-10 11:58:00
5:58 AM,42.8,32.0,66,30.14,10.0,NW,3.5,-,N/A,,Clear,320,2013-03-10 12:58:00
6:58 AM,42.8,32.0,66,30.15,10.0,North,3.5,-,N/A,,Clear,360,2013-03-10 13:58:00
7:58 AM,45.0,45.0,100,30.17,10.0,North,4.6,-,N/A,,Clear,350,2013-03-10 14:58:00
8:58 AM,49.5,45.1,85,30.19,10.0,NE,3.5,-,N/A,,Clear,40,2013-03-10 15:58:00
9:58 AM,53.4,43.5,69,30.19,10.0,SSE,2.3,-,N/A,,Clear,150,2013-03-10 16:58:00
10:58 AM,56.3,42.3,59,30.19,10.0,NNE,2.3,-,N/A,,Clear,30,2013-03-10 17:58:00
11:58 AM,60.1,42.1,51,30.18,10.0,NW,4.6,-,N/A,,Clear,310,2013-03-10 18:58:00
12:58 PM,65.1,37.9,37,30.14,10.0,Variable,3.5,-,N/A,,Clear,0,2013-03-10 19:58:00
1:58 PM,66.7,36.0,32,30.11,10.0,Variable,4.6,-,N/A,,Clear,0,2013-03-10 20:58:00
2:58 PM,70.0,34.3,27,30.09,10.0,WNW,12.7,-,N/A,,Clear,290,2013-03-10 21:58:00
3:58 PM,70.3,32.7,25,30.07,10.0,NNW,6.9,-,N/A,,Clear,330,2013-03-10 22:58:00
4:58 PM,70.5,33.4,26,30.06,10.0,WNW,5.8,-,N/A,,Clear,290,2013-03-10 23:58:00
5:58 PM,70.2,34.2,27,30.06,10.0,West,5.8,-,N/A,,Clear,260,2013-03-11 00:58:00
6:58 PM,65.1,40.5,40,30.08,10.0,SW,6.9,-,N/A,,Clear,230,2013-03-11 01:58:00
7:58 PM,63.0,38.7,41,30.09,10.0,South,6.9,-,N/A,,Clear,190,2013-03-11 02:58:00
8:58 PM,59.7,39.6,47,30.11,10.0,SW,3.5,-,N/A,,Clear,220,2013-03-11 03:58:00
9:58 PM,55.9,42.3,60,30.13,10.0,Calm,Calm,-,N/A,,Clear,0,2013-03-11 04:58:00
10:58 PM,54.9,42.8,64,30.14,10.0,North,3.5,-,N/A,,Clear,350,2013-03-11 05:58:00
11:58 PM,53.8,43.3,68,30.14,10.0,NNW,6.9,-,N/A,,Clear,330,2013-03-11 06:58:00